Weather History for Janesville, WI

Change the Weather History Date:

Monday, November 4, 2013

  Actual Average Record
Temperature  
Mean Temperature 50 °F -  
Max Temperature 57 °F 53 °F 73 °F (2008)
Min Temperature 42 °F 34 °F 10 °F (1991)
Degree Days  
Heating Degree Days 16    
Moisture  
Dew Point 37 °F    
Average Humidity 65    
Maximum Humidity 76    
Minimum Humidity 48    
Precipitation  
Precipitation 0.00 in - - ()
Sea Level Pressure  
Sea Level Pressure 30.15 in    
Wind  
Wind Speed 11 mph (South)    
Max Wind Speed 21 mph    
Max Gust Speed 26 mph    
Visibility 10 miles    
Events      
Averages and records for this station are not official NWS values.
T = Trace of Precipitation, MM = Missing Value Source: NWS Daily Summary

Daily Weather History Graph

Daily Weather History Graph

Search for Another Location

Airport:

Trip Planner

Search our weather history database for the weather conditions in past years. The results will help you decide how hot, cold, wet, or windy it might be!

Date:

Astronomy

Nov. 04, 2013 Rise Set
Actual Time 6:34 AM CST 4:44 PM CST
Civil Twilight 6:04 AM CST 5:14 PM CST
Nautical Twilight 5:30 AM CST 5:47 PM CST
Astronomical Twilight 4:58 AM CST 6:20 PM CST
Moon 7:45 AM CST (11/4) 5:47 PM CST (11/4)
Length of Visible Light 11h 09m
Length of Day
10h 10m
New Moon, 2% of the Moon is Illuminated
Nov 4
New Moon
Nov 9
First Quarter
Nov 17
Full
Nov 25
Last Quarter
Dec 2
New

Hourly Weather History & Observations

Time (CST) Temp. Windchill Dew Point Humidity Pressure Visibility Wind Dir Wind Speed Gust Speed Precip Events Conditions
12:15 AM 42.8 °F 37.0 °F 33.8 °F 70% 30.21 in 10.0 mi SSE 10.4 mph - N/A   Clear
12:55 AM 42.8 °F 36.2 °F 33.8 °F 70% 30.20 in 10.0 mi SSE 12.7 mph - N/A   Clear
1:15 AM 42.8 °F 36.2 °F 33.8 °F 70% 30.19 in 10.0 mi SE 12.7 mph - N/A   Clear
1:35 AM 42.8 °F 37.0 °F 33.8 °F 70% 30.19 in 10.0 mi SSE 10.4 mph - N/A   Clear
1:55 AM 42.8 °F 37.5 °F 33.8 °F 70% 30.21 in 10.0 mi SSE 9.2 mph - N/A   Clear
2:15 AM 42.8 °F 37.5 °F 33.8 °F 70% 30.21 in 10.0 mi SE 9.2 mph - N/A   Clear
2:35 AM 42.8 °F 38.0 °F 33.8 °F 70% 30.20 in 10.0 mi SE 8.1 mph - N/A   Clear
2:55 AM 42.8 °F 37.5 °F 35.6 °F 76% 30.20 in 10.0 mi SE 9.2 mph - N/A   Clear
3:15 AM 42.8 °F 37.0 °F 33.8 °F 70% 30.19 in 10.0 mi SE 10.4 mph - N/A   Clear
3:35 AM 42.8 °F 37.0 °F 33.8 °F 70% 30.19 in 10.0 mi SE 10.4 mph - N/A   Clear
3:55 AM 42.8 °F 36.2 °F 33.8 °F 70% 30.18 in 10.0 mi SE 12.7 mph - N/A   Clear
4:15 AM 42.8 °F 35.4 °F 33.8 °F 70% 30.18 in 10.0 mi SSE 15.0 mph - N/A   Clear
4:35 AM 42.8 °F 35.8 °F 33.8 °F 70% 30.18 in 10.0 mi SSE 13.8 mph - N/A   Clear
5:45 AM 46.4 °F 41.5 °F 33.8 °F 62% 30.15 in 10.0 mi SSE 10.4 mph 20.7 mph N/A   Clear
6:45 AM 46.4 °F 40.4 °F 33.8 °F 62% 30.15 in 10.0 mi SSE 13.8 mph 18.4 mph N/A   Clear
7:45 AM 46.4 °F 39.8 °F 35.6 °F 66% 30.15 in 10.0 mi SSE 16.1 mph 21.9 mph N/A   Clear
8:45 AM 48.2 °F - 35.6 °F 62% 30.14 in 10.0 mi SSE 16.1 mph 21.9 mph N/A   Clear
9:45 AM 48.2 °F - 35.6 °F 62% 30.13 in 10.0 mi SSE 15.0 mph 21.9 mph N/A   Clear
10:45 AM 53.6 °F - 35.6 °F 51% 30.11 in 10.0 mi SSE 18.4 mph 26.5 mph N/A   Clear
11:45 AM 51.8 °F - 35.6 °F 54% 30.10 in 10.0 mi SSE 19.6 mph 25.3 mph N/A   Clear
12:45 PM 53.6 °F - 35.6 °F 51% 30.06 in 10.0 mi SSE 20.7 mph 26.5 mph N/A   Overcast
1:45 PM 53.6 °F - 37.4 °F 54% 30.05 in 10.0 mi SSE 17.3 mph 23.0 mph N/A   Mostly Cloudy
2:45 PM 57.2 °F - 37.4 °F 48% 30.04 in 10.0 mi SSE 17.3 mph 23.0 mph N/A   Mostly Cloudy
3:45 PM 55.4 °F - 37.4 °F 51% 30.06 in 10.0 mi South 13.8 mph 19.6 mph N/A   Mostly Cloudy
4:45 PM 55.4 °F - 39.2 °F 54% 30.07 in 10.0 mi South 9.2 mph - N/A   Overcast
7:45 PM 53.6 °F - 42.8 °F 67% 30.13 in 10.0 mi SSW 11.5 mph 19.6 mph N/A   Overcast
8:15 PM 51.8 °F - 42.8 °F 71% 30.13 in 10.0 mi SSW 9.2 mph - N/A   Overcast
8:35 PM 51.8 °F - 42.8 °F 71% 30.13 in 10.0 mi SSW 6.9 mph - N/A   Overcast
8:45 PM 53.6 °F - 42.8 °F 67% 30.13 in 10.0 mi SSW 8.1 mph - N/A   Overcast
8:55 PM 51.8 °F - 42.8 °F 71% 30.13 in 10.0 mi SSW 5.8 mph - N/A   Overcast
9:15 PM 51.8 °F - 42.8 °F 71% 30.14 in 10.0 mi SSW 5.8 mph - N/A   Overcast
9:35 PM 51.8 °F - 42.8 °F 71% 30.15 in 10.0 mi SSW 6.9 mph - N/A   Overcast
9:55 PM 51.8 °F - 41.0 °F 67% 30.15 in 10.0 mi SSW 6.9 mph - N/A   Overcast
10:15 PM 51.8 °F - 41.0 °F 67% 30.15 in 10.0 mi SSW 8.1 mph - N/A   Overcast
10:35 PM 51.8 °F - 41.0 °F 67% 30.15 in 10.0 mi SSW 6.9 mph - N/A   Overcast
10:55 PM 51.8 °F - 41.0 °F 67% 30.15 in 10.0 mi SSW 5.8 mph - N/A   Overcast
11:15 PM 51.8 °F - 41.0 °F 67% 30.15 in 10.0 mi SSW 4.6 mph - N/A   Overcast
11:35 PM 51.8 °F - 41.0 °F 67% 30.16 in 10.0 mi SSW 4.6 mph - N/A   Overcast
11:55 PM 51.8 °F - 41.0 °F 67% 30.16 in 10.0 mi SW 4.6 mph - N/A   Overcast